[[{"header":{"parameterUnit":"m.s-1","parameterCategory":1,"la1":30.2991,"la2":30.254,"lo1":-89.0895,"lo2":-89.0444,"dy":0.0017,"dx":0.0017,"nx":28,"ny":28,"refTime":"2023-09-27T09:00:00:Z","depth":0,"parameterNumber":2,"parameterNumberName":"U-component_of_WINDS"},"data":[0,0,0,0,0,0,0,0,0,0,0,0,0,0,0,0,0,0,0,0,0,0,0,0,0,0,0,0,0,0,0,0,0,0,0,0,0,0,0,0,0,0,0,0,0,0,0,0,0,0,0,0,0,0,0,0,0,0,-6.1083,-6.1084,0,-6.1187,-6.1188,-6.1189,-6.1065,-6.106,-6.1056,-6.1051,-6.1155,-6.1162,-6.1169,0,0,0,0,0,0,0,0,0,0,0,0,0,-6.0774,-6.078,-6.1083,-6.1084,-6.1086,-6.1187,-6.1188,-6.1189,-6.1066,-6.106,-6.1054,-6.1049,-6.1153,-6.1161,-6.117,0,0,0,0,0,0,0,0,0,0,0,0,0,-6.0896,-6.0782,-6.1083,-6.1036,-6.1033,-6.1186,-6.1188,-6.119,-6.1067,-6.106,-6.1053,-6.1047,-6.115,-6.1161,-6.1171,-6.1375,0,0,-6.1204,-6.1208,0,0,0,0,0,0,0,0,-6.0889,-6.0907,-6.1042,-6.104,-6.1036,-6.1106,-6.1117,-6.1252,-6.1069,-6.1054,-6.1051,-6.1043,-6.1144,-6.1155,-6.119,-6.138,-6.1384,-6.1204,-6.1211,-6.1215,-6.1218,0,0,0,0,0,0,0,-6.0881,-6.0902,-6.1124,-6.1044,-6.1041,-6.1009,-6.1018,-6.1142,-6.1137,-6.1055,-6.1046,-6.106,-6.1142,-6.118,-6.1191,-6.1386,-6.1204,-6.1214,-6.122,-6.1224,-6.1745,-6.1752,0,0,0,0,0,0,-6.0878,-6.0896,-6.1121,-6.1127,-6.0944,-6.102,-6.1031,-6.1091,-6.1135,-6.1135,-6.1066,-6.1054,-6.1165,-6.1179,-6.1194,-6.1434,-6.1215,-6.1225,-6.1231,-6.1738,-6.1747,-6.1755,0,0,0,0,0,0,-6.0872,-6.0899,-6.1116,-6.1009,-6.1034,-6.1033,-6.1101,-6.1096,-6.1134,-6.1143,-6.1141,-6.1106,-6.116,-6.1179,-6.133,-6.1436,-6.123,-6.124,-6.1729,-6.174,-6.1751,-6.1916,0,0,0,0,0,0,-6.0864,-6.0898,-6.0976,-6.1012,-6.1041,-6.1253,-6.1107,-6.1103,-6.1153,-6.1138,-6.1181,-6.1181,-6.1156,-6.1315,-6.1341,-6.1446,-6.1248,-6.1719,-6.1734,-6.1747,-6.1901,-6.1931,-6.1957,0,0,0,0,0,-6.0853,-6.1019,-6.0981,-6.1009,-6.1139,-6.1259,-6.1275,-6.1244,-6.1162,-6.124,-6.1245,-6.118,-6.142,-6.1332,-6.136,-6.147,-6.1712,-6.173,-6.1746,-6.1888,-6.1925,-6.1956,0,0,0,0,0,0,-6.0995,-6.1023,-6.0981,-6.1164,-6.121,-6.1238,-6.1335,-6.1284,-6.1354,-6.1338,-6.1295,-6.1306,-6.1466,-6.1483,-6.1384,-6.1668,-6.1553,-6.1576,-6.1651,-6.1686,-6.1714,-6.1706,-6.1257,0,0,0,0,0,-6.1048,-6.1144,-6.1162,-6.1322,-6.1347,-6.1338,-6.1389,-6.1361,-6.1406,-6.1425,-6.1442,-6.1488,-6.1573,-6.1631,-6.1711,-6.1903,-6.1909,-6.1992,-6.202,-6.2043,-6.2064,-6.2164,-6.2201,-6.181,-6.181,-6.181,0,0,-6.1158,-6.1184,-6.1248,-6.1351,-6.1383,-6.1482,-6.1355,-6.1466,-6.1538,-6.1442,-6.1585,-6.1599,-6.1647,-6.1819,-6.1896,-6.1838,-6.2173,-6.2065,-6.2083,-6.2091,-6.2185,-6.2222,-6.2255,-6.1821,-6.1819,-6.1817,0,0,-6.1408,-6.1439,-6.1573,-6.1609,-6.166,-6.1652,-6.1684,-6.172,-6.1725,-6.1869,-6.1798,-6.1883,-6.2032,-6.2069,-6.2107,-6.237,-6.2311,-6.2397,-6.2544,-6.2642,-6.2673,-6.27,-6.2792,-6.2825,-6.2417,-6.2418,-6.2418,0,-6.1537,-6.1685,-6.1649,-6.1765,-6.1811,-6.1729,-6.1864,-6.1899,-6.1974,-6.2007,-6.1942,-6.2126,-6.2153,-6.2331,-6.2395,-6.243,-6.2464,-6.2392,-6.2672,-6.2698,-6.2723,-6.281,-6.2845,-6.2428,-6.2427,-6.2425,-6.2425,0,-6.184,-6.1944,-6.2046,-6.212,-6.2178,-6.2303,-6.2285,-6.2348,-6.2314,-6.2313,-6.2459,-6.2488,-6.2571,-6.2612,-6.258,-6.2785,-6.2748,-6.2678,-6.2561,-6.2771,-6.2851,-6.2885,-6.2442,-6.2438,-6.2435,-6.2433,0,0,-6.2183,-6.2235,-6.2273,-6.2304,-6.2354,-6.2432,-6.2553,-6.2634,-6.2688,-6.2742,-6.284,-6.2968,-6.2903,-6.2946,-6.2918,-6.3005,-6.3209,-6.2924,-6.2924,-6.2974,-6.3434,-6.3485,-6.3524,-6.317,-6.3177,-6.3181,-6.3429,0,-6.2432,-6.2641,-6.2612,-6.2812,-6.2905,-6.2828,-6.2932,-6.2973,-6.2975,-6.3054,-6.3055,-6.3145,-6.3054,-6.3079,-6.3162,-6.3167,-6.33,-6.3148,-6.326,-6.3264,-6.3248,-6.3567,-6.3621,-6.3853,-6.346,-6.3466,-6.347,0,-6.275,-6.2816,-6.3026,-6.3059,-6.3097,-6.3191,-6.3262,-6.3339,-6.3383,-6.3378,-6.3427,-6.3383,-6.3501,-6.3383,-6.3544,-6.3442,-6.3485,-6.3495,-6.3503,-6.3511,-6.3379,-6.3581,-6.3927,-6.3961,-6.352,-6.3516,-6.3512,0,-6.2977,-6.3117,-6.326,-6.329,-6.3333,-6.3401,-6.3421,-6.3459,-6.3509,-6.3571,-6.3603,-6.3678,-6.3719,-6.3778,-6.3754,-6.3671,-6.392,-6.38,-6.3917,-6.3918,-6.3972,-6.3969,-6.4328,-6.4004,-6.4003,-6.4002,-6.4002,0,-6.3257,-6.3388,-6.3362,-6.345,-6.3594,-6.3558,-6.3701,-6.3712,-6.3746,-6.3833,-6.3771,-6.3854,-6.3819,-6.3899,-6.3882,-6.4017,-6.4036,-6.4034,-6.4028,-6.4039,-6.4039,-6.4066,-6.4048,-6.4011,-6.4009,-6.4008,-6.4006,0,-6.3533,-6.3522,-6.3672,-6.37,-6.371,-6.3815,-6.3838,-6.392,-6.3916,-6.4028,-6.4052,-6.4046,-6.4138,-6.412,-6.4221,-6.4209,-6.4378,-6.4352,-6.4363,-6.4357,-6.4474,-6.4462,-6.4861,-6.4911,-6.4557,-6.456,-6.4563,0,-6.3712,-6.3811,-6.385,-6.3904,-6.393,-6.4018,-6.4069,-6.4038,-6.4093,-6.415,-6.4224,-6.431,-6.4376,-6.4526,-6.453,-6.4606,-6.4581,-6.4715,-6.4592,-6.4599,-6.458,-6.4574,-6.4583,-6.4739,-6.4744,-6.4747,-6.475,0,-6.403,-6.4019,-6.4095,-6.4169,-6.4232,-6.4289,-6.4339,-6.4387,-6.4359,-6.4424,-6.4517,-6.4569,-6.4672,-6.4757,-6.4828,-6.4847,-6.4794,-6.4789,-6.4819,-6.4831,-6.4832,-6.4831,-6.4428,-6.4779,-6.4776,-6.4774,-6.4772,-6.4771,-6.4261,-6.4345,-6.4384,-6.4471,-6.4506,-6.4554,-6.4631,-6.4638,-6.4715,-6.4796,-6.4772,-6.4877,-6.4917,-6.5006,-6.5034,-6.5115,-6.5064,-6.5109,-6.512,-6.5132,-6.5145,-6.4821,-6.5128,-6.5127,-6.5126,-6.5125,-6.5125,0,-6.4574,-6.4595,-6.4675,-6.4748,-6.4815,-6.476,-6.4813,-6.4873,-6.4966,-6.5008,-6.5075,-6.518,-6.5262,-6.5273,-6.535,-6.5413,-6.539,-6.5434,-6.5428,-6.5433,-6.5187,-6.5151,-6.5451,-6.5451,-6.5451,-6.545,-6.545,-6.545,-6.4744,-6.4881,-6.4875,-6.5028,-6.5049,-6.5151,-6.5186,-6.5229,-6.5262,-6.5383,-6.5451,-6.5458,-6.5487,-6.5565,-6.5638,-6.5638,-6.5669,-6.5722,-6.5713,-6.5483,-6.545,-6.5419,-6.5386,-6.5729,-6.573,-6.5952,-6.5954,-6.5956]},{"header":{"parameterUnit":"m.s-1","parameterCategory":1,"la1":30.2991,"la2":30.254,"lo1":-89.0895,"lo2":-89.0444,"dy":0.0017,"dx":0.0017,"nx":28,"ny":28,"refTime":"2023-09-27T09:00:00:Z","depth":0,"parameterNumber":3,"parameterNumberName":"V-component_of_WINDS"},"data":[0,0,0,0,0,0,0,0,0,0,0,0,0,0,0,0,0,0,0,0,0,0,0,0,0,0,0,0,0,0,0,0,0,0,0,0,0,0,0,0,0,0,0,0,0,0,0,0,0,0,0,0,0,0,0,0,0,0,-3.3169,-3.3169,0,-3.3174,-3.3174,-3.3174,-3.3098,-3.3096,-3.3094,-3.3092,-3.3098,-3.31,-3.3102,0,0,0,0,0,0,0,0,0,0,0,0,0,-3.3094,-3.3096,-3.3169,-3.3169,-3.3169,-3.3174,-3.3174,-3.3174,-3.3099,-3.3096,-3.3094,-3.3091,-3.3098,-3.31,-3.3102,0,0,0,0,0,0,0,0,0,0,0,0,0,-3.3116,-3.3096,-3.3169,-3.3132,-3.3129,-3.3174,-3.3174,-3.3174,-3.3099,-3.3096,-3.3093,-3.309,-3.3097,-3.31,-3.3103,-3.3184,0,0,-3.3112,-3.3114,0,0,0,0,0,0,0,0,-3.3114,-3.3118,-3.3137,-3.3135,-3.3131,-3.3132,-3.3149,-3.3177,-3.31,-3.3111,-3.3092,-3.3089,-3.3112,-3.3114,-3.3121,-3.3184,-3.3184,-3.3113,-3.3114,-3.3116,-3.3117,0,0,0,0,0,0,0,-3.3113,-3.3118,-3.3171,-3.3138,-3.3134,-3.3115,-3.3115,-3.3154,-3.3129,-3.3109,-3.3104,-3.3105,-3.311,-3.3119,-3.3121,-3.3184,-3.3112,-3.3115,-3.3117,-3.3118,-3.3311,-3.3314,0,0,0,0,0,0,-3.3117,-3.3117,-3.3171,-3.3171,-3.3115,-3.3119,-3.3119,-3.3135,-3.3128,-3.3124,-3.3108,-3.3102,-3.3115,-3.3117,-3.3121,-3.3214,-3.3116,-3.3119,-3.312,-3.3308,-3.3312,-3.3315,0,0,0,0,0,0,-3.3115,-3.3122,-3.317,-3.3142,-3.3147,-3.3123,-3.3143,-3.3137,-3.3145,-3.3127,-3.3122,-3.3122,-3.3113,-3.3117,-3.3168,-3.3213,-3.312,-3.3123,-3.3304,-3.3309,-3.3313,-3.3401,0,0,0,0,0,0,-3.3113,-3.3122,-3.3153,-3.3144,-3.3149,-3.3218,-3.3145,-3.3139,-3.3151,-3.3143,-3.3139,-3.3135,-3.311,-3.3164,-3.3171,-3.3215,-3.3125,-3.33,-3.3306,-3.3312,-3.3394,-3.3408,-3.342,0,0,0,0,0,-3.3111,-3.3178,-3.3155,-3.3162,-3.3187,-3.3221,-3.3224,-3.3194,-3.3155,-3.3185,-3.3173,-3.3135,-3.3207,-3.317,-3.3177,-3.3223,-3.3297,-3.3304,-3.3311,-3.3388,-3.3405,-3.342,0,0,0,0,0,0,-3.3194,-3.3176,-3.315,-3.3216,-3.322,-3.3208,-3.3246,-3.3214,-3.3229,-3.3221,-3.3184,-3.3183,-3.3241,-3.3237,-3.3196,-3.33,-3.3245,-3.3254,-3.33,-3.3317,-3.333,-3.3329,-3.3128,0,0,0,0,0,-3.322,-3.3248,-3.3231,-3.3291,-3.3295,-3.327,-3.3284,-3.326,-3.3263,-3.3265,-3.3256,-3.3261,-3.3284,-3.33,-3.3321,-3.3393,-3.339,-3.3428,-3.3441,-3.3452,-3.3461,-3.3497,-3.3514,-3.3339,-3.3339,-3.3339,0,0,-3.3273,-3.3267,-3.3288,-3.3308,-3.3308,-3.3338,-3.3272,-3.3307,-3.3329,-3.327,-3.3318,-3.3312,-3.3314,-3.3376,-3.3403,-3.3375,-3.3508,-3.3462,-3.3471,-3.3473,-3.3506,-3.3523,-3.3538,-3.3344,-3.3343,-3.3343,0,0,-3.3387,-3.3386,-3.3434,-3.3436,-3.3437,-3.342,-3.3432,-3.3423,-3.3417,-3.3464,-3.342,-3.3445,-3.3487,-3.349,-3.3497,-3.3609,-3.3575,-3.3617,-3.3686,-3.3722,-3.3736,-3.3748,-3.3787,-3.3802,-3.3625,-3.3626,-3.3626,0,-3.3454,-3.3498,-3.3464,-3.3501,-3.3511,-3.3458,-3.3506,-3.3509,-3.3518,-3.3525,-3.3494,-3.3543,-3.3541,-3.3602,-3.3629,-3.3637,-3.3649,-3.3617,-3.3737,-3.3748,-3.3759,-3.3796,-3.3811,-3.3631,-3.363,-3.363,-3.3629,0,-3.3579,-3.361,-3.365,-3.3658,-3.3671,-3.3715,-3.3687,-3.3705,-3.368,-3.3666,-3.3714,-3.3709,-3.3727,-3.374,-3.3716,-3.3798,-3.378,-3.3743,-3.3687,-3.3781,-3.3815,-3.383,-3.3638,-3.3636,-3.3635,-3.3633,0,0,-3.3746,-3.3733,-3.3748,-3.3751,-3.3747,-3.377,-3.3811,-3.3827,-3.3843,-3.385,-3.3883,-3.3918,-3.3883,-3.3891,-3.3867,-3.3899,-3.3987,-3.3858,-3.3858,-3.3882,-3.4075,-3.4103,-3.412,-3.3964,-3.3967,-3.3969,-3.4075,0,-3.3856,-3.3923,-3.3893,-3.3964,-3.3991,-3.394,-3.3975,-3.3977,-3.3964,-3.3986,-3.3972,-3.3997,-3.395,-3.3954,-3.3984,-3.3971,-3.4026,-3.3962,-3.3994,-3.3995,-3.3994,-3.4138,-3.4167,-3.4267,-3.4088,-3.409,-3.4092,0,-3.3993,-3.4004,-3.4078,-3.4067,-3.4078,-3.411,-3.4122,-3.4143,-3.4143,-3.4132,-3.414,-3.4108,-3.4147,-3.4091,-3.4142,-3.41,-3.4111,-3.4106,-3.4109,-3.4111,-3.4049,-3.4143,-3.4299,-3.4314,-3.4113,-3.4111,-3.411,0,-3.4106,-3.414,-3.4188,-3.4191,-3.4181,-3.4204,-3.4201,-3.4198,-3.421,-3.422,-3.4227,-3.4243,-3.4251,-3.4263,-3.4236,-3.4198,-3.4292,-3.4234,-3.4283,-3.4284,-3.4305,-3.4304,-3.4465,-3.4313,-3.4313,-3.4313,-3.4312,0,-3.4232,-3.4278,-3.4238,-3.4268,-3.4318,-3.4282,-3.4333,-3.4324,-3.4322,-3.4348,-3.4305,-3.4331,-3.4294,-3.4316,-3.4296,-3.4341,-3.4345,-3.4337,-3.4331,-3.4341,-3.4342,-3.4347,-3.434,-3.4317,-3.4316,-3.4315,-3.4314,0,-3.4367,-3.4342,-3.439,-3.4376,-3.4373,-3.4411,-3.4398,-3.4425,-3.4409,-3.4443,-3.4449,-3.4424,-3.4447,-3.4422,-3.4444,-3.443,-3.4491,-3.4475,-3.4491,-3.4486,-3.4537,-3.4532,-3.4706,-3.4727,-3.4562,-3.4564,-3.4565,0,-3.4449,-3.4483,-3.4471,-3.4486,-3.4485,-3.4508,-3.4519,-3.4485,-3.4498,-3.45,-3.4526,-3.4546,-3.456,-3.46,-3.4584,-3.4601,-3.4584,-3.4644,-3.4586,-3.4595,-3.4584,-3.4582,-3.4585,-3.4656,-3.4658,-3.4659,-3.4661,0,-3.4596,-3.4581,-3.4598,-3.4611,-3.4625,-3.4633,-3.4639,-3.4653,-3.4617,-3.4634,-3.4657,-3.4668,-3.469,-3.471,-3.4721,-3.4717,-3.4684,-3.4679,-3.4691,-3.4701,-3.4709,-3.4705,-3.4522,-3.4675,-3.4674,-3.4673,-3.4672,-3.4671,-3.4706,-3.4733,-3.4729,-3.4749,-3.4749,-3.4755,-3.4778,-3.4764,-3.4783,-3.4797,-3.4776,-3.4805,-3.4802,-3.4814,-3.4814,-3.4836,-3.4811,-3.4829,-3.4833,-3.4838,-3.4845,-3.4706,-3.4838,-3.4838,-3.4837,-3.4837,-3.4837,0,-3.485,-3.4844,-3.4863,-3.4871,-3.4886,-3.4852,-3.4855,-3.4871,-3.4896,-3.4897,-3.4911,-3.4937,-3.4956,-3.4941,-3.4956,-3.4976,-3.4961,-3.4982,-3.498,-3.4979,-3.4867,-3.4855,-3.4994,-3.4994,-3.4994,-3.4994,-3.4994,-3.4994,-3.4927,-3.4971,-3.4956,-3.4999,-3.4993,-3.502,-3.5025,-3.5029,-3.5029,-3.506,-3.5075,-3.5064,-3.5059,-3.5073,-3.5089,-3.5084,-3.5091,-3.5117,-3.5107,-3.5003,-3.4987,-3.4973,-3.4961,-3.512,-3.512,-3.5217,-3.5218,-3.5219]}]]